Home   Weather   13°10'N, 77°43'E   Past weeks
Flag for India

Past Weather in 13°10'N, 77°43'E, India — Yesterday and Last 2 Weeks

Now
70 °F

Passing clouds.


Feels Like: 70 °F
Forecast: 80 / 71 °F
Wind: 14 mph from West

Location: Bangalore / Hindustan

Current Time: Jul 21, 2019 at 5:49:20 am

Latest Report: Jul 21, 2019 at 5:30 am


Visibility: N/A

Pressure: 29.77 "Hg

Humidity: 88%

Dew Point: 66 °F

Location of 13°10'N, 77°43'ELocation

Past Weather in 13°10'N, 77°43'E — Graph

°F

13°10'N, 77°43'E Temperature Yesterday

Maximum temperature yesterday: 84 °F (at 12:00 pm)
Minimum temperature yesterday: 70 °F (at 5:30 am)
Average temperature yesterday: 77 °F

High & Low Weather Summary for the Past Weeks

 TemperatureHumidityPressure
High88 °F (Jul 12, 2:00 pm)100% (Jul 11, 10:30 pm)30.01 "Hg (Jul 11, 10:30 pm)
Low66 °F (Jul 11, 10:30 pm)43% (Jul 12, 2:00 pm)29.68 "Hg (Jul 19, 5:00 pm)
Average78 °F69%29.87 "Hg
* Reported Jul 5 11:30 pm — Jul 20 11:30 pm, 13°10'N, 77°43'E. Weather by CustomWeather, © 2019

Note: Actual official high and low records may vary slightly from our data, if they occured in-between our weather recording intervals... More about our weather records

Advertising

13°10'N, 77°43'E Weather History for the Previous 24 Hours

Scroll right to see more
 ConditionsComfort  
Time TempWeatherWind HumidityBarometerVisibility
11:30 pm
Sat, Jul 20
72 °FPassing clouds.12 mph83%29.83 "HgN/A
10:30 pm73 °FPassing clouds.14 mph78%29.83 "HgN/A
9:30 pm73 °FPassing clouds.16 mph74%29.80 "HgN/A
8:30 pm75 °FPassing clouds.14 mph69%29.80 "HgN/A
7:30 pm77 °FPassing clouds.12 mph69%29.80 "HgN/A
6:30 pm79 °FScattered clouds.12 mph65%29.77 "HgN/A
5:30 pm81 °FScattered clouds.12 mph66%29.74 "HgN/A
5:00 pm81 °FScattered clouds.14 mph62%29.74 "HgN/A
4:30 pm82 °FScattered clouds.14 mph58%29.74 "HgN/A
4:00 pm81 °FScattered clouds.17 mph62%29.74 "HgN/A
3:30 pm79 °FScattered clouds.17 mph70%29.74 "HgN/A
3:00 pm82 °FScattered clouds.16 mph58%29.74 "HgN/A
2:30 pm82 °FScattered clouds.16 mph58%29.77 "HgN/A
2:00 pm82 °FScattered clouds.14 mph58%29.77 "HgN/A
1:30 pm82 °FScattered clouds.14 mph58%29.77 "HgN/A
1:00 pm81 °FScattered clouds.14 mph62%29.80 "HgN/A
12:30 pm81 °FScattered clouds.14 mph62%29.80 "HgN/A
12:00 pm84 °FScattered clouds.12 mph55%29.80 "HgN/A
11:30 am77 °FScattered clouds.12 mph74%29.83 "HgN/A
11:00 am77 °FScattered clouds.14 mph69%29.83 "HgN/A
10:30 am77 °FScattered clouds.14 mph74%29.83 "HgN/A
10:00 am77 °FScattered clouds.16 mph69%29.83 "HgN/A
9:30 am77 °FScattered clouds.14 mph69%29.83 "HgN/A
9:00 am73 °FScattered clouds.14 mph78%29.83 "HgN/A
8:30 am72 °FScattered clouds.12 mph88%29.83 "HgN/A
8:00 am73 °FScattered clouds.12 mph78%29.80 "HgN/A
7:30 am73 °FScattered clouds.12 mph78%29.80 "HgN/A
7:00 am72 °FScattered clouds.14 mph88%29.77 "Hg5 mi
6:30 am72 °FPartly cloudy.14 mph83%29.77 "Hg5 mi
6:00 am70 °FPartly cloudy.12 mph88%29.77 "Hg4 mi
5:30 am70 °FPassing clouds.12 mph88%29.77 "Hg4 mi
Weather by CustomWeather, © 2019

See weather overview